N333MB KLAX-KTEB

Flight info

Callsign N333MB
Flight time N/A
Altitude 45000
Route KLAX OSHNN1 BEALE DCT BAWER DCT HVE J60 JOT J146 GIJ J554 JHW LVZ5 KTEB
Aircraft GLF6/M-V/N

Departure

Time 2026-04-20 06:24
Airport Los Angeles International Airport (KLAX)

Arrival

Time N/A
Airport Teterboro Airport (KTEB)
Time Latitude Longitude Altitude Speed Heading
2026-04-20 06:13 33.93375 -118.39916 110 ft 0 kts 22°
2026-04-20 06:19 33.93385 -118.39909 115 ft 7 kts 33°
2026-04-20 06:19 33.93418 -118.39833 120 ft 11 kts 62°
2026-04-20 06:19 33.93461 -118.39756 120 ft 15 kts 84°
2026-04-20 06:19 33.93476 -118.39613 119 ft 18 kts 83°
2026-04-20 06:20 33.93492 -118.39452 119 ft 20 kts 83°
2026-04-20 06:20 33.93511 -118.39273 119 ft 23 kts 83°
2026-04-20 06:20 33.93530 -118.39082 119 ft 23 kts 83°
2026-04-20 06:20 33.93550 -118.38893 119 ft 23 kts 83°
2026-04-20 06:21 33.93569 -118.38702 119 ft 23 kts 83°
2026-04-20 06:21 33.93582 -118.38578 118 ft 23 kts 82°
2026-04-20 06:21 33.93607 -118.38339 119 ft 18 kts 79°
2026-04-20 06:21 33.93679 -118.38280 118 ft 11 kts 355°
2026-04-20 06:22 33.93790 -118.38297 118 ft 20 kts 353°
2026-04-20 06:22 33.93861 -118.38308 118 ft 0 kts 353°
2026-04-20 06:23 33.93867 -118.38309 116 ft 6 kts 353°
2026-04-20 06:23 33.93942 -118.38341 117 ft 11 kts 303°
2026-04-20 06:23 33.93943 -118.38424 119 ft 8 kts 262°
2026-04-20 06:23 33.93919 -118.38664 119 ft 54 kts 263°
2026-04-20 06:24 33.93840 -118.39433 120 ft 130 kts 262°
2026-04-20 06:24 33.93681 -118.40731 289 ft 180 kts 260°
2026-04-20 06:24 33.93556 -118.41838 602 ft 213 kts 262°
2026-04-20 06:24 33.93352 -118.43851 997 ft 272 kts 263°
2026-04-20 06:25 33.92774 -118.46135 1831 ft 289 kts 242°
2026-04-20 06:25 33.91744 -118.48005 2868 ft 254 kts 231°
2026-04-20 06:25 33.90649 -118.49657 3751 ft 253 kts 228°
2026-04-20 06:25 33.89499 -118.51287 4686 ft 257 kts 228°
2026-04-20 06:26 33.88332 -118.52953 5661 ft 263 kts 226°
2026-04-20 06:26 33.86892 -118.54311 6651 ft 265 kts 209°
2026-04-20 06:26 33.85198 -118.55196 7642 ft 266 kts 195°
2026-04-20 06:26 33.83365 -118.55522 8676 ft 267 kts 181°
2026-04-20 06:27 33.81521 -118.55273 9733 ft 269 kts 168°
2026-04-20 06:27 33.79636 -118.54753 10001 ft 299 kts 168°
2026-04-20 06:27 33.77582 -118.54215 9998 ft 299 kts 168°
2026-04-20 06:27 33.75615 -118.53676 10627 ft 287 kts 168°
2026-04-20 06:28 33.73672 -118.53089 11324 ft 291 kts 162°
2026-04-20 06:28 33.71805 -118.51967 12211 ft 305 kts 149°
2026-04-20 06:28 33.70157 -118.50396 13632 ft 311 kts 139°
2026-04-20 06:28 33.68783 -118.48268 14317 ft 336 kts 123°
2026-04-20 06:29 33.67794 -118.45626 15041 ft 359 kts 111°
2026-04-20 06:29 33.66956 -118.42706 15819 ft 381 kts 111°
2026-04-20 06:29 33.66043 -118.39673 16594 ft 402 kts 112°
2026-04-20 06:29 33.65088 -118.36417 17376 ft 426 kts 109°
2026-04-20 06:30 33.64523 -118.32834 18160 ft 451 kts 96°
2026-04-20 06:30 33.64453 -118.28971 18901 ft 475 kts 89°
2026-04-20 06:30 33.64896 -118.24931 19611 ft 501 kts 77°
2026-04-20 06:30 33.65961 -118.20843 20347 ft 527 kts 68°
2026-04-20 06:31 33.67714 -118.16885 21102 ft 546 kts 57°
2026-04-20 06:31 33.69994 -118.13435 21809 ft 508 kts 45°
2026-04-20 06:31 33.72545 -118.10719 22532 ft 476 kts 36°
2026-04-20 06:31 33.75119 -118.08436 23273 ft 461 kts 35°
2026-04-20 06:32 33.77675 -118.06119 23966 ft 463 kts 36°
2026-04-20 06:32 33.80254 -118.03795 24644 ft 463 kts 35°
2026-04-20 06:32 33.81667 -118.02537 25019 ft 463 kts 34°
2026-04-20 06:33 33.81944 -118.02291 25093 ft 462 kts 34°
2026-04-20 06:33 33.84483 -118.00029 25811 ft 453 kts 34°
2026-04-20 06:33 33.87035 -117.97722 26537 ft 464 kts 34°
2026-04-20 06:34 33.89644 -117.95362 27294 ft 473 kts 34°
2026-04-20 06:34 33.92272 -117.92994 28065 ft 473 kts 34°
2026-04-20 06:34 33.97559 -117.88143 29670 ft 485 kts 34°
2026-04-20 06:35 34.00256 -117.85676 30435 ft 489 kts 34°
2026-04-20 06:35 34.02988 -117.83188 31167 ft 496 kts 34°
2026-04-20 06:35 34.05746 -117.80661 31918 ft 499 kts 34°
2026-04-20 06:35 34.08453 -117.78026 32661 ft 504 kts 40°
2026-04-20 06:36 34.10860 -117.74914 33432 ft 511 kts 47°
2026-04-20 06:36 34.13097 -117.71576 34216 ft 512 kts 48°
2026-04-20 06:36 34.15352 -117.68236 34920 ft 514 kts 47°
2026-04-20 06:36 34.17582 -117.64942 35624 ft 514 kts 48°
2026-04-20 06:37 34.19838 -117.61586 36356 ft 514 kts 48°
2026-04-20 06:37 34.22087 -117.58229 37097 ft 513 kts 48°
2026-04-20 06:37 34.24331 -117.54891 37856 ft 511 kts 48°
2026-04-20 06:37 34.26570 -117.51561 38645 ft 508 kts 48°
2026-04-20 06:38 34.28786 -117.48257 39276 ft 504 kts 48°
2026-04-20 06:38 34.30979 -117.44978 39906 ft 499 kts 49°
2026-04-20 06:38 34.33127 -117.41768 40564 ft 494 kts 49°
2026-04-20 06:38 34.35271 -117.38564 41235 ft 487 kts 49°
2026-04-20 06:39 34.37389 -117.35396 41766 ft 483 kts 50°
2026-04-20 06:39 34.39491 -117.32245 42214 ft 479 kts 50°
2026-04-20 06:39 34.41579 -117.29114 42581 ft 477 kts 50°
2026-04-20 06:39 34.43656 -117.25999 42924 ft 474 kts 50°
2026-04-20 06:40 34.45712 -117.22909 43284 ft 470 kts 50°
2026-04-20 06:40 34.47760 -117.19830 43636 ft 465 kts 50°
2026-04-20 06:40 34.49772 -117.16802 43980 ft 459 kts 50°
2026-04-20 06:40 34.51764 -117.13803 44326 ft 452 kts 51°
2026-04-20 06:41 34.53696 -117.10890 44509 ft 449 kts 51°
2026-04-20 06:41 34.57687 -117.05095 44615 ft 446 kts 50°
2026-04-20 06:41 34.59640 -117.02206 44744 ft 441 kts 50°
2026-04-20 06:42 34.61590 -116.99360 44857 ft 435 kts 49°
2026-04-20 06:42 34.65438 -116.93771 44934 ft 429 kts 50°
2026-04-20 06:43 34.69216 -116.88239 44953 ft 422 kts 50°
2026-04-20 06:43 34.72907 -116.82842 44891 ft 417 kts 50°
2026-04-20 06:43 34.74776 -116.80104 44566 ft 423 kts 50°
2026-04-20 06:44 34.76666 -116.77331 44280 ft 428 kts 50°
2026-04-20 06:44 34.78578 -116.74526 44017 ft 434 kts 49°
2026-04-20 06:44 34.80519 -116.71678 43769 ft 441 kts 49°
2026-04-20 06:44 34.82021 -116.69469 43581 ft 446 kts 49°
2026-04-20 06:45 34.83893 -116.66716 43353 ft 454 kts 49°
2026-04-20 06:45 34.85944 -116.63750 43104 ft 463 kts 46°
2026-04-20 06:45 34.88139 -116.60844 42985 ft 468 kts 46°
2026-04-20 06:46 34.92534 -116.54973 42970 ft 478 kts 46°
2026-04-20 06:46 34.97077 -116.48893 42953 ft 490 kts 46°
2026-04-20 06:47 35.01721 -116.42671 42942 ft 502 kts 46°
2026-04-20 06:47 35.06488 -116.36269 42943 ft 517 kts 46°
2026-04-20 06:48 35.11387 -116.29679 42941 ft 532 kts 46°
2026-04-20 06:48 35.16390 -116.22934 42934 ft 547 kts 46°
2026-04-20 06:49 35.21545 -116.15971 42932 ft 555 kts 47°
2026-04-20 06:49 35.26712 -116.08978 42927 ft 552 kts 47°
2026-04-20 06:50 35.31867 -116.01985 42929 ft 554 kts 47°
2026-04-20 06:50 35.37033 -115.94967 42950 ft 555 kts 47°
2026-04-20 06:51 35.42154 -115.87990 42951 ft 548 kts 47°
2026-04-20 06:51 35.44658 -115.84573 42941 ft 530 kts 47°
2026-04-20 06:51 35.47081 -115.81265 42941 ft 514 kts 47°
2026-04-20 06:51 35.49439 -115.78043 42940 ft 502 kts 47°
2026-04-20 06:52 35.51760 -115.74871 42955 ft 499 kts 47°
2026-04-20 06:52 35.56412 -115.68498 42984 ft 503 kts 47°
2026-04-20 06:52 35.58741 -115.65304 43201 ft 497 kts 47°
2026-04-20 06:53 35.61027 -115.62162 43592 ft 492 kts 47°
2026-04-20 06:53 35.63303 -115.59036 43966 ft 488 kts 47°
2026-04-20 06:53 35.65525 -115.55981 44336 ft 483 kts 47°
2026-04-20 06:53 35.67751 -115.52915 44695 ft 477 kts 47°
2026-04-20 06:54 35.69944 -115.49893 44971 ft 472 kts 47°
2026-04-20 06:54 35.74335 -115.43834 45003 ft 475 kts 47°
2026-04-20 06:55 35.78745 -115.37732 45001 ft 478 kts 47°
2026-04-20 06:55 35.83180 -115.31592 45006 ft 482 kts 47°
2026-04-20 06:56 35.87622 -115.25426 44998 ft 487 kts 47°
2026-04-20 06:56 35.92137 -115.19149 45007 ft 492 kts 47°
2026-04-20 06:57 35.96698 -115.12796 44998 ft 498 kts 47°
2026-04-20 06:57 36.01319 -115.06347 45006 ft 505 kts 47°
2026-04-20 06:58 36.05973 -114.99839 44969 ft 511 kts 47°
2026-04-20 06:58 36.10664 -114.93265 44904 ft 508 kts 47°